Showing default

INTELSAT 3-F7, 4376

Orbit data source: Space-Track

INTELSAT 3-F7, 4376 is a payload satellite owned by INTELSAT (US) in GEO that was launched on Thu, 23 Apr 1970 UTC via a THOR DELTA M launch vehicle from the Air Force Eastern Test Range (AFETR). Payload-class satellites include a variety of spacecraft equipped with specific instruments for various scientific and technological missions. These include communications satellites like Starlink; space stations such as the ISS; scientific satellites like the Hubble; Earth observation satellites from companies like Planet Labs, Umbra, and HawkEye 360; GPS; miniature CubeSats for education and research; and military/defense satellites.

Not visible in the next 10 days
Identifier
4376, 1970-032A
Orbit
GEO
Country
Flag of USUS / ITSO
Related business
Manufacturer
TRW
Mission
Non-operational spacecraft
Bus & Motor
INTELSAT 3, MRE-4
Mass
294 kg wet, 113 kg dry
Launch date (UTC)
1970-04-23 (56 years ago)
Launch vehicle
THOR DELTA M
Launch site
Air Force Eastern Test Range (AFETR)
Object type
Payload
Rocket body
Debris
Shape & HBR
CYL, 1.1 m
Radar Cross Section
Large (>1 m²)

Expand to show TLE details & history
Last TLE update: 2 days ago

TLE from 2 days ago
0 INTELSAT 3-F7
1 04376U 70032A   26264.84420668 -.00000268  00000-0  00000-0 0  9997
2 04376   2.6712  85.8437 0003164 197.9167 162.5677  1.00278057 48331
Epoch: 2026-09-21T20:15Z
TLE epoch observation values (Epoch: 2026-09-21T20:15:39.457Z)
Latitude
0.00001°
Longitude
141.68843°
Altitude
35,797.001 km
Speed
3.074 km/s
True Right ascension
05h 45m 17s
True Declination
0° 00' 00"
Sunlit
Object was in daylight at epoch
Visualization orbit readout
Latitude
Unknown
Longitude
Unknown
Altitude
Unknown
Speed
Unknown
Apparent Right ascension
Unknown
Apparent Declination
Unknown
Sunlit
N/A
Visualization observer readout
Local Sidereal Time
02:43:55
Azimuth
Unknown
Elevation
Unknown
Doppler factor
Unknown
Orbital elements
Apogee altitude
35,799.245 km
Perigee altitude
35,772.563 km
Semi-major axis
42,164.041 km
Eccentricity
0.00032
Inclination
2.6712°
RAAN
85.8437°
Arg. of periapsis
197.9167°
True anomaly
162.57856°
Mean anomaly
162.5677°
Eccentric anomaly
162.57313°
Mean motion
0.25069 °/min
Orbital period
1,436.06 mins
BSTAR
0
Loading maneuver chart data...
Computing Atmospheric mass density...
Loading historical data...
Loading historical data...
Loading historical data...
Loading historical data...
Loading historical data...
Loading historical data...
Loading historical data...
Other satellites on launch #32 in the year 1970 (1970-04-23 UTC)

Documentation

Showing up to 5 results
|